Monroe, NC

2:58 PM EDT on September 26, 2017 (GMT -0400)
Monroe

Weather History for KEQY - April, 2014

Change the Weather History Date:

Sunday, April 13, 2014

  Actual Average (KCLT) Record (KCLT)
Temperature  
Mean Temperature 68 °F -  
Max Temperature 81 °F 71 °F 90 °F (1930)
Min Temperature 57 °F 48 °F 28 °F (1940)
Cooling Degree Days 4    
Growing Degree Days 18 (Base 50)    
Moisture  
Dew Point 53 °F    
Average Humidity 59    
Maximum Humidity 75    
Minimum Humidity 40    
Precipitation  
Precipitation 0.00 in - - ()
Sea Level Pressure  
Sea Level Pressure 30.15 in    
Wind  
Wind Speed 7 mph (SSW)    
Max Wind Speed 12 mph    
Max Gust Speed 21 mph    
Visibility 10 miles    
Events      
Averages and records for this station are not official NWS values.
T = Trace of Precipitation, MM = Missing Value Source: NWS Daily Summary

Daily Weather History Graph

Daily Weather History Graph

Search for Another Location

Airport or City:

Trip Planner

Search our weather history database for the weather conditions in past years. The results will help you decide how hot, cold, wet, or windy it might be!

Date:

Astronomy

Apr. 13, 2014 Rise Set
Actual Time 6:53 AM EDT 7:53 PM EDT
Civil Twilight 6:27 AM EDT 8:19 PM EDT
Nautical Twilight 5:56 AM EDT 8:50 PM EDT
Astronomical Twilight 5:24 AM EDT 9:22 PM EDT
Moon 6:32 PM EDT (4/13) 5:47 AM EDT (4/13)
Length of Visible Light 13h 52m
Length of Day
13h 00m
Waxing Gibbous, 97% of the Moon is Illuminated
Apr 13
Waxing Gibbous
Apr 15
Full
Apr 22
Last Quarter
Apr 29
New
May 6
First Quarter

Hourly Weather History & Observations

Time (EDT) Temp. Heat Index Dew Point Humidity Pressure Visibility Wind Dir Wind Speed Gust Speed Precip Events Conditions
12:53 AM 64.0 °F - 51.1 °F 63% 30.17 in 10.0 mi Variable 5.8 mph - N/A   Clear
1:53 AM 63.0 °F - 51.1 °F 65% 30.16 in 10.0 mi SSW 5.8 mph - N/A   Clear
2:53 AM 61.0 °F - 51.1 °F 70% 30.16 in 10.0 mi South 3.5 mph - N/A   Clear
3:53 AM 59.0 °F - 51.1 °F 75% 30.16 in 10.0 mi South 3.5 mph - N/A   Clear
4:53 AM 59.0 °F - 50.0 °F 72% 30.16 in 10.0 mi SSW 4.6 mph - N/A   Clear
5:53 AM 57.9 °F - 50.0 °F 75% 30.17 in 10.0 mi SSW 4.6 mph - N/A   Clear
6:53 AM 57.9 °F - 50.0 °F 75% 30.19 in 10.0 mi SSW 4.6 mph - N/A   Clear
7:53 AM 60.1 °F - 52.0 °F 75% 30.21 in 10.0 mi SSW 4.6 mph - N/A   Clear
8:53 AM 64.0 °F - 54.0 °F 70% 30.22 in 10.0 mi SSW 10.4 mph - N/A   Clear
9:53 AM 70.0 °F - 55.9 °F 61% 30.22 in 10.0 mi SW 10.4 mph - N/A   Clear
10:53 AM 71.1 °F - 55.9 °F 59% 30.22 in 10.0 mi SSW 8.1 mph - N/A   Clear
11:53 AM 73.9 °F - 55.0 °F 52% 30.21 in 10.0 mi SSW 11.5 mph 20.7 mph N/A   Clear
12:53 PM 75.9 °F - 55.0 °F 48% 30.18 in 10.0 mi South 9.2 mph - N/A   Clear
1:53 PM 78.1 °F - 55.0 °F 45% 30.16 in 10.0 mi SW 11.5 mph - N/A   Scattered Clouds
2:53 PM 79.0 °F - 55.0 °F 44% 30.14 in 10.0 mi SW 11.5 mph - N/A   Mostly Cloudy
3:53 PM 79.0 °F - 53.1 °F 40% 30.12 in 10.0 mi SSW 8.1 mph - N/A   Scattered Clouds
4:53 PM 80.1 °F 80.0 °F 54.0 °F 40% 30.10 in 10.0 mi SSW 10.4 mph - N/A   Mostly Cloudy
5:53 PM 79.0 °F - 53.1 °F 40% 30.09 in 10.0 mi SW 9.2 mph - N/A   Partly Cloudy
6:53 PM 77.0 °F - 54.0 °F 45% 30.09 in 10.0 mi North - - N/A   Mostly Cloudy
8:53 PM 70.0 °F - 54.0 °F 57% 30.10 in 10.0 mi Variable 3.5 mph - N/A   Clear
9:53 PM 66.9 °F - 54.0 °F 63% 30.10 in 10.0 mi Variable 3.5 mph - N/A   Clear
10:53 PM 68.0 °F - 53.1 °F 59% 30.10 in 10.0 mi South 8.1 mph - N/A   Clear
11:53 PM 66.9 °F - 52.0 °F 59% 30.10 in 10.0 mi South 8.1 mph - N/A   Clear